Regional Weather Roundup
Issued by NWS Northern Indiana

Home | Current Version | Previous Version | Text Only | Print | Product List | Glossary On
Versions: 1 2 3 4 5 6 7 8 9 10 11 12 13 14 15 16 17 18 19 20 21 22 23 24 25 26 27 28 29 30 31 32 33 34 35 36 37 38 39 40 41 42 43 44 45 46 47 48 49 50
000
ASUS43 KIWX 271210
RWRIWX

KIWX WEATHER ROUNDUP
NATIONAL WEATHER SERVICE NORTHERN INDIANA
800 AM EDT WED MAY 27 2015

NOTE: "FAIR" INDICATES FEW OR NO CLOUDS BELOW 12,000 FEET WITH NO
SIGNIFICANT WEATHER AND/OR OBSTRUCTIONS TO VISIBILITY.

* THESE STATIONS ARE NOT UNDER NWS QUALITY CONTROL. THEY ALSO MAY NOT
  REPORT WEATHER SUCH AS PRECIPITATION OR FOG.

INZ001>027-271300-
NORTHERN INDIANA

CITY           SKY/WX    TMP DP  RH WIND       PRES   REMARKS
GARY*          MOSUNNY   68  63  83 SW10      29.94R
VALPARAISO     CLOUDY    66  61  84 SW13      29.97R
6HR MIN TEMP:  64; 6HR MAX TEMP:  68;

MICHIGAN CITY* MOSUNNY   68  59  73 SW13      29.96R
LAPORTE*       CLOUDY    68  62  83 SW13      29.97R
6HR MIN TEMP:  66; 6HR MAX TEMP:  69;

KNOX*          CLOUDY    64  61  88 SW16      29.97R
SOUTH BEND     PTSUNNY   68  61  78 SW12      29.96R
6HR MIN TEMP:  65; 6HR MAX TEMP:  68;

ELKHART*       SUNNY     66  61  82 SW12G18   29.97R
GOSHEN         SUNNY     67  61  81 SW14      29.97R
6HR MIN TEMP:  64; 6HR MAX TEMP:  67;

MONTICELLO*    MOSUNNY   67  64  90 SW12      29.99S
6HR MIN TEMP:  64; 6HR MAX TEMP:  67;

LOGANSPORT*    SUNNY     66  59  77 SW15      30.01F
ROCHESTER*     SUNNY     70  63  78 SW12      30.00S
WARSAW*        SUNNY     68  61  77 SW9G16    29.99S
ANGOLA*        SUNNY     66  61  82 SW12      29.98R
FORT WAYNE     MOSUNNY   67  62  84 SW14      30.02R
6HR MIN TEMP:  63; 6HR MAX TEMP:  67;

HUNTINGTON*    PTSUNNY   66  61  83 SW8       30.02R
6HR MIN TEMP:  64; 6HR MAX TEMP:  67;

PERU/GRISSOM   SUNNY     68  62  81 SW13      30.00S
6HR MIN TEMP:  65; 6HR MAX TEMP:  68;

MARION*        SUNNY     66  60  80 SW13G21   30.04S
6HR MIN TEMP:  29; 6HR MAX TEMP:  86;


$$
INZ028>050-271300-
CENTRAL INDIANA

CITY           SKY/WX    TMP DP  RH WIND       PRES   REMARKS
LAFAYETTE      LGT RAIN  66  62  87 SW8       30.01R
6HR MIN TEMP:  64; 6HR MAX TEMP:  67; 6HR PCP: TRACE;

KOKOMO*        SUNNY     68  61  77 SW14      30.02S
6HR MIN TEMP:  64; 6HR MAX TEMP:  68;

MUNCIE*        SUNNY     67  61  81 SW13G18   30.05R
6HR MIN TEMP:  64; 6HR MAX TEMP:  68;

INDIANAPOLIS   PTSUNNY   66  61  84 S10       30.05R
6HR MIN TEMP:  63; 6HR MAX TEMP:  67;


$$
MIZ043>046-050>051-056>058-064>065-071>073-077>080-271300-
SOUTHWEST LOWER MICHIGAN

CITY           SKY/WX    TMP DP  RH WIND       PRES   REMARKS
BATTLE CREEK   MOSUNNY   67  60  78 SW16      29.94R
6HR MIN TEMP:  65; 6HR MAX TEMP:  67;

BENTON HARBOR  SUNNY     67  61  81 SW17G24   29.93R
6HR MIN TEMP:  65; 6HR MAX TEMP:  69;

COLDWATER*     SUNNY     66  60  79 SW12G17   29.97R
6HR MIN TEMP:  64; 6HR MAX TEMP:  66;

HILLSDALE*     SUNNY     67  63  87 SW13G18   29.98R
HOLLAND        MOSUNNY   66  60  81 SW17G28   29.91R
6HR MIN TEMP:  64; 6HR MAX TEMP:  69; 6HR PCP: TRACE;

GRAND RAPIDS   PTSUNNY   68  61  78 SW14      29.89R
6HR MIN TEMP:  66; 6HR MAX TEMP:  68;

KALAMAZOO      MOSUNNY   68  60  75 SW14      29.94S
6HR MIN TEMP:  65; 6HR MAX TEMP:  68;

STURGIS*       SUNNY     66  61  82 SW16      29.96S
THREE RIVERS*  FAIR      67  60  80 SW12      29.96R
6HR MIN TEMP:  64; 6HR MAX TEMP:  67;


$$
OHZ001>008-015>018-024>025-271300-
NORTHWEST OHIO

CITY           SKY/WX    TMP DP  RH WIND       PRES   REMARKS
WAUSEON*       FAIR      68  64  88 SW15G23   30.00R
DEFIANCE       SUNNY     68  61  78 SW15G21   30.01R
6HR MIN TEMP:  65; 6HR MAX TEMP:  69;

FINDLAY        SUNNY     69  63  81 S13       30.03R
6HR MIN TEMP:  66; 6HR MAX TEMP:  70;

TOLEDO EXPRESS SUNNY     67  61  81 SW12G18   29.99R
6HR MIN TEMP:  65; 6HR MAX TEMP:  69;

TOLEDO METCALF SUNNY     69  62  78 SW13      30.01R
6HR MIN TEMP:  67; 6HR MAX TEMP:  70;

LIMA           MOSUNNY   67  62  84 SW12      30.05R
6HR MIN TEMP:  65; 6HR MAX TEMP:  68;


$$
AND FOR LAKE MICHIGAN COASTAL AND OPEN LAKE BUOY OBSERVATIONS

STATION/POSITION TEMP    WIND        PRES    VSBY  WAVE
                 AIR SEA DIR/SP/G                  HT/PER
                 (F)     (DEG/KT/KT) (MB)    (MI)  (FT/S)
CALUMET HARBOR    66     210/ 10/ 13   N/A
MICHIGAN CITY     66     190/ 15/ 18   N/A
BURNS HARBOR      67     210/ 14/ 19 1014.2F
SAINT JOSEPH      66     180/ 13/ 19 1014.6R
SOUTH LAKE BUOY   48 38  210/ 14/ 16 1012.5R         1/ 4
4 MI NW BRIDGMAN  60 55  230/ 12/ 12   N/A           2/ 4
MICHIGAN CITY     61 52  220/ 12/ 16   N/A           2/ 3

$$
&&



USA.gov is the U.S. government's official web portal to all federal, state and local government web resources and services.